User: anonymous   Login
Location: Unspecified
(0.0000°N, 0.0000°E)
Time: 23:43:52
(UTC+00:00)
Language:

MOZHAYETS 4 - Orbit

View from above orbital plane
View from above orbital plane
View from above satellite
View from above satellite

Ground track
Ground track

The orbit data is extracted from the following two-line orbital elements,

1 27939U 03042A   21136.52892919  .00000159  00000-0  37135-4 0  9995
2 27939  98.1356 273.8562 0013465  27.3559 332.8348 14.66980090942848
Epoch (UTC): 16 May 2021 12:41:39
Eccentricity: 0.0013465
inclination: 98.1356°
perigee height: 661 km
apogee height: 680 km
right ascension of ascending node: 273.8562°
argument of perigee: 27.3559°
revolutions per day: 14.66980090
mean anomaly at epoch: 332.8348°
orbit number at epoch: 94284

The dashed part of the orbit path shows where the satellite is in the earth's shadow,  

DLR